Location: Narrabri
(30.3170°S, 149.7830°E)
Time: 02:23:17
(UTC+11:00)

Envisat - Pass Details

Date: 14 October 2017
Orbit: 764 x 766 km, 98.2° (Epoch: 10 December)

Event Time Altitude Azimuth Distance (km) Brightness Sun altitude
Rises 21:29:38 0° 168° (SSE) 3,259 6.5 -29.0°
Reaches altitude 10° 21:31:57 10° 167° (SSE) 2,326 5.7 -29.4°
Enters shadow 21:34:39 32° 166° (SSE) 1,309 4.3 -29.9°
